DELTA 1 DEB, 10711

Orbit data source: Space-Track

DELTA 1 DEB, 10711 is space debris in SSO originally from a launch on Thu, 29 Jul 1976 UTC launched from the Air Force Western Test Range (AFWTR). Debris objects in space refer to the collection of defunct objects orbiting the Earth. Examples of debris include non-operational satellites, rocket bodies, and fragments generated from explosions, collisions, or faulty payload assembly.

Loading next visibility...
DELTA 1 DEB details
Identifier
10711, 1976-077AG
Orbit
SSO
Last TLE update8 hours ago
Origin
Flag of USGSFC (US)
ManufacturerUnknown
MissionSpacecraft
Bus & MotorUnknown
MassUnknown
Launch date (UTC)
1976-07-29 (48 years ago)
Launch vehicleUnknown
Launch site
Air Force Western Test Range (AFWTR)
Object type
Payload
Rocket body
Debris
Shape & HBRUnknown
Radar Cross SectionSmall (<0.1 m²)

Expand to show TLE details & history

TLE from 8 hours ago
0 DELTA 1 DEB
1 10711U 76077AG  24361.27635639 -.00000021  00000-0  21464-3 0  9998
2 10711 102.4223 333.7909 0063553 316.1471 149.5365 12.29235844172637
Epoch: 2024-12-26T06:37Z
Definitive object data (Epoch: 2024-12-26T06:37:57.192Z)
Latitude69.87951°
Longitude-4.20339°
Altitude1,607.994 km
Speed7.053 km/s
True Right ascension12h 42m 10s
True Declination69° 46' 48"
Sunlit
Object was in daylight at TLE epoch
Visualization TLE readout
Latitude36.3942°
Longitude-31.32329°
Altitude1,607.203 km
Speed7.047 km/s
Apparent Right ascension07h 36m 47s
Apparent Declination7° 48' 38"
Sunlit
Object is in daylight
Visualization observer readout
Local Sidereal Time14:00:40
Azimuth279.807° WNW
Elevation0.47°
Doppler factor1
Orbital elements
Apogee altitude1,600.567 km
Perigee altitude1,499.793 km
Semi-major axis7,928.317 km
Eccentricity0.0063553
Inclination102.4223°
RAAN333.7909°
Arg. of periapsis316.1471°
True anomaly149.90321°
Mean anomaly149.5365°
Eccentric anomaly149.7201°
Mean motion3.07448 °/min
BSTAR0.00021464
Orbital period117.09 mins
Loading maneuver chart data...
Loading historical data...
Loading historical data...
Loading historical data...
Loading historical data...
Loading historical data...
Loading historical data...
Loading historical data...

DELTA 1 DEB Visibility forecast

Observer location: undefined°, undefined

Span
Click to sort rows by Start time (UTC) header in descending order
Start Az.
Max El. time (UTC)
Max El. Az.
Max El.
End time (UTC)
End Az.
9 mins2024-12-26 19:56:47.550Z80.457° E2024-12-26 20:01:47.550Z42.84° NE17.159°2024-12-26 20:05:47.550Z13.752° NNE
15 mins2024-12-26 21:47:47.550Z148.477° SSE2024-12-26 21:54:47.550Z58.277° ENE43.813°2024-12-26 22:02:47.550Z345.796° N
12 mins2024-12-26 23:44:47.550Z221.618° SW2024-12-26 23:49:47.550Z262.128° W22.27°2024-12-26 23:56:47.550Z316.166° NNW
13 mins2024-12-27 10:04:47.550Z46.059° ENE2024-12-27 10:10:47.550Z96.918° ESE26.382°2024-12-27 10:17:47.550Z151.959° SSE
16 mins2024-12-27 11:58:47.550Z10.418° NNE2024-12-27 12:05:47.550Z301.59° NW42.135°2024-12-27 12:14:47.550Z215.623° SW
8 mins2024-12-27 13:55:47.550Z339.09° N2024-12-27 13:58:47.550Z317.408° NNW15.489°2024-12-27 14:03:47.550Z282.562° WNW
|